Regional Weather Roundup
Issued by NWS

Home | Current Version | Previous Version | Text Only | Print | Product List | Glossary On
Versions: 1 2 3 4 5 6 7 8 9 10 11 12 13 14 15 16 17 18 19 20 21 22 23 24 25 26 27 28
000
ASUS42 KKEY 260610
RWRKEY

FLORIDA REGIONAL WEATHER ROUNDUP FOR THE FLORIDA KEYS
NATIONAL WEATHER SERVICE KEY WEST FLORIDA
200 AM EDT TUE JUL 26 2016

...SOUTH FLORIDA AND THE KEYS...

CITY           SKY/WX    TMP DP  RH WIND       PRES   REMARKS
FORT MYERS     PTCLDY    78  74  87 CALM      30.06S
SW REGIONAL AP   N/A     77  73  87 E3        30.06F
NAPLES         CLEAR     78  76  93 E6        30.06F
MIAMI          PTCLDY    84  76  76 E6        30.05F HX  93
WEST KENDALL   PTCLDY    78  76  93 CALM      30.05F
HOMESTEAD      CLEAR     80  76  87 CALM      30.05S
MARATHON       PTCLDY    84  76  76 VRB7      30.04S HX  93
BOCA CHICA NAS CLEAR     84  76  76 E12       30.03F HX  93
KEY WEST INTL  CLEAR     85  77  77 E12       30.04S HX  95

...INTERNATIONAL WEATHER...

CITY           SKY/WX    TMP DP  RH WIND       PRES   REMARKS
NASSAU BAHAMAS PTCLDY    84  77  79 E5        30.07F HX  94
CANCUN MEXICO  MOCLDY    84  77  79 E5        29.98F HX  94
COZUMEL MEXICO PTCLDY    75  75 100 CALM      29.98F

ADJACENT COASTAL WATERS...

STATION/POSITION TIME  SKY/WX   TEMP    WIND        PRES    WAVE
                                AIR SEA DIR/SP/G            HT/PER
                 (UTC)          (F)     (DEG/KT/KT) (MB)    (FT/S)
PULASKI SHOAL LI 0600            84     110/  8/ 10 1017.1F
SAND KEY         0550            84     120/ 13/ 15 1017.5F
LONG KEY         0600            85 87  120/  8/  9 1017.5F
FOWEY ROCKS      0600            85 84  120/  9/ 10 1018.3R

$$




USA.gov is the U.S. government's official web portal to all federal, state and local government web resources and services.